,Coso Junction,Coso Junction
,PM10_1HR,PM10_1HR
,,
Date,Value,Null Code
01-Apr-2017 00:00,54.8,
01-Apr-2017 01:00,42.1,
01-Apr-2017 02:00,30.9,
01-Apr-2017 03:00,53.9,
01-Apr-2017 04:00,124.2,
01-Apr-2017 05:00,117,
01-Apr-2017 06:00,86.9,
01-Apr-2017 07:00,46.6,
01-Apr-2017 08:00,38.8,
01-Apr-2017 09:00,41,
01-Apr-2017 10:00,16.9,
01-Apr-2017 11:00,9.2,
01-Apr-2017 12:00,3.4,
01-Apr-2017 13:00,1.1,
01-Apr-2017 14:00,2.3,
01-Apr-2017 15:00,5.3,
01-Apr-2017 16:00,5.7,
01-Apr-2017 17:00,10.5,
01-Apr-2017 18:00,8.3,
01-Apr-2017 19:00,11.6,
01-Apr-2017 20:00,10.5,
01-Apr-2017 21:00,7.9,
01-Apr-2017 22:00,9.8,
01-Apr-2017 23:00,9.6,
02-Apr-2017 00:00,8,
02-Apr-2017 01:00,6.9,
02-Apr-2017 02:00,7.3,
02-Apr-2017 03:00,6.2,
02-Apr-2017 04:00,8.9,
02-Apr-2017 05:00,9.4,
02-Apr-2017 06:00,13.2,
02-Apr-2017 07:00,7.6,
02-Apr-2017 08:00,4.4,
02-Apr-2017 09:00,5,
02-Apr-2017 10:00,5.5,
02-Apr-2017 11:00,3.9,
02-Apr-2017 12:00,0.9,
02-Apr-2017 13:00,8.6,
02-Apr-2017 14:00,12.6,
02-Apr-2017 15:00,10.3,
02-Apr-2017 16:00,11.8,
02-Apr-2017 17:00,14.2,
02-Apr-2017 18:00,6.3,
02-Apr-2017 19:00,14,
02-Apr-2017 20:00,14.1,
02-Apr-2017 21:00,11.6,
02-Apr-2017 22:00,16.7,
02-Apr-2017 23:00,10,
03-Apr-2017 00:00,10.7,
03-Apr-2017 01:00,9.3,
03-Apr-2017 02:00,7.7,
03-Apr-2017 03:00,10.8,
03-Apr-2017 04:00,10.6,
03-Apr-2017 05:00,9.1,
03-Apr-2017 06:00,13.1,
03-Apr-2017 07:00,6.6,
03-Apr-2017 08:00,9.1,
03-Apr-2017 09:00,5.2,
03-Apr-2017 10:00,11.8,
03-Apr-2017 11:00,27.3,
03-Apr-2017 12:00,30.8,
03-Apr-2017 13:00,27.8,
03-Apr-2017 14:00,32.8,
03-Apr-2017 15:00,33.9,
03-Apr-2017 16:00,16.2,
03-Apr-2017 17:00,15.6,
03-Apr-2017 18:00,10.5,
03-Apr-2017 19:00,13.6,
03-Apr-2017 20:00,22.4,
03-Apr-2017 21:00,15.4,
03-Apr-2017 22:00,15.8,
03-Apr-2017 23:00,22.5,
04-Apr-2017 00:00,3.2,
04-Apr-2017 01:00,8.4,
04-Apr-2017 02:00,8.8,
04-Apr-2017 03:00,11,
04-Apr-2017 04:00,9.9,
04-Apr-2017 05:00,13.2,
04-Apr-2017 06:00,17.2,
04-Apr-2017 07:00,10.5,
04-Apr-2017 08:00,8,
04-Apr-2017 09:00,,BA
04-Apr-2017 10:00,,BA
04-Apr-2017 11:00,,AN
04-Apr-2017 12:00,,AN
04-Apr-2017 13:00,,AN
04-Apr-2017 14:00,,AN
04-Apr-2017 15:00,,AN
04-Apr-2017 16:00,,AN
04-Apr-2017 17:00,,AN
04-Apr-2017 18:00,,AN
04-Apr-2017 19:00,,AN
04-Apr-2017 20:00,,AN
04-Apr-2017 21:00,,AN
04-Apr-2017 22:00,,AN
04-Apr-2017 23:00,,AN
05-Apr-2017 00:00,,AN
05-Apr-2017 01:00,,AN
05-Apr-2017 02:00,,AN
05-Apr-2017 03:00,,AN
05-Apr-2017 04:00,,AN
05-Apr-2017 05:00,,AN
05-Apr-2017 06:00,,AN
05-Apr-2017 07:00,,AN
05-Apr-2017 08:00,,AN
05-Apr-2017 09:00,,AN
05-Apr-2017 10:00,,AN
05-Apr-2017 11:00,,AN
05-Apr-2017 12:00,,AN
05-Apr-2017 13:00,,AN
05-Apr-2017 14:00,,AN
05-Apr-2017 15:00,,AN
05-Apr-2017 16:00,,AN
05-Apr-2017 17:00,,AN
05-Apr-2017 18:00,30.4,
05-Apr-2017 19:00,28.8,
05-Apr-2017 20:00,19.1,
05-Apr-2017 21:00,11.5,
05-Apr-2017 22:00,20.7,
05-Apr-2017 23:00,21.9,
06-Apr-2017 00:00,21.2,
06-Apr-2017 01:00,20,
06-Apr-2017 02:00,20.5,
06-Apr-2017 03:00,29.1,
06-Apr-2017 04:00,42.5,
06-Apr-2017 05:00,31.5,
06-Apr-2017 06:00,30.5,
06-Apr-2017 07:00,33.7,
06-Apr-2017 08:00,23.6,
06-Apr-2017 09:00,22.4,
06-Apr-2017 10:00,24.1,
06-Apr-2017 11:00,57.2,
06-Apr-2017 12:00,25.3,
06-Apr-2017 13:00,23.8,
06-Apr-2017 14:00,25.4,
06-Apr-2017 15:00,42.1,
06-Apr-2017 16:00,30,
06-Apr-2017 17:00,7,
06-Apr-2017 18:00,7.2,
06-Apr-2017 19:00,6.5,
06-Apr-2017 20:00,7.8,
06-Apr-2017 21:00,7.5,
06-Apr-2017 22:00,20.7,
06-Apr-2017 23:00,35.3,
07-Apr-2017 00:00,25.6,
07-Apr-2017 01:00,51.4,
07-Apr-2017 02:00,17.7,
07-Apr-2017 03:00,15.8,
07-Apr-2017 04:00,11.6,
07-Apr-2017 05:00,13.3,
07-Apr-2017 06:00,10.7,
07-Apr-2017 07:00,6.5,
07-Apr-2017 08:00,9.7,
07-Apr-2017 09:00,13.8,
07-Apr-2017 10:00,5.7,
07-Apr-2017 11:00,,AN
07-Apr-2017 12:00,,AN
07-Apr-2017 13:00,,AN
07-Apr-2017 14:00,,AN
07-Apr-2017 15:00,,AN
07-Apr-2017 16:00,,AN
07-Apr-2017 17:00,,AN
07-Apr-2017 18:00,,AN
07-Apr-2017 19:00,,AN
07-Apr-2017 20:00,,AN
07-Apr-2017 21:00,,AN
07-Apr-2017 22:00,,AN
07-Apr-2017 23:00,,AN
08-Apr-2017 00:00,,AN
08-Apr-2017 01:00,,AN
08-Apr-2017 02:00,,AN
08-Apr-2017 03:00,,AN
08-Apr-2017 04:00,,AN
08-Apr-2017 05:00,,AN
08-Apr-2017 06:00,,AN
08-Apr-2017 07:00,,AN
08-Apr-2017 08:00,,AN
08-Apr-2017 09:00,,AN
08-Apr-2017 10:00,,AN
08-Apr-2017 11:00,,AN
08-Apr-2017 12:00,,AN
08-Apr-2017 13:00,,AN
08-Apr-2017 14:00,,AN
08-Apr-2017 15:00,,AN
08-Apr-2017 16:00,,AN
08-Apr-2017 17:00,,AN
08-Apr-2017 18:00,,AN
08-Apr-2017 19:00,,AN
08-Apr-2017 20:00,,AN
08-Apr-2017 21:00,,AN
08-Apr-2017 22:00,,AN
08-Apr-2017 23:00,,AN
09-Apr-2017 00:00,,AN
09-Apr-2017 01:00,,AN
09-Apr-2017 02:00,,AN
09-Apr-2017 03:00,,AN
09-Apr-2017 04:00,,AN
09-Apr-2017 05:00,,AN
09-Apr-2017 06:00,,AN
09-Apr-2017 07:00,,AN
09-Apr-2017 08:00,,AN
09-Apr-2017 09:00,,AN
09-Apr-2017 10:00,,AN
09-Apr-2017 11:00,,AN
09-Apr-2017 12:00,,AN
09-Apr-2017 13:00,,AN
09-Apr-2017 14:00,,AN
09-Apr-2017 15:00,,AN
09-Apr-2017 16:00,,AN
09-Apr-2017 17:00,,AN
09-Apr-2017 18:00,,AN
09-Apr-2017 19:00,,AN
09-Apr-2017 20:00,,AN
09-Apr-2017 21:00,,AN
09-Apr-2017 22:00,,AN
09-Apr-2017 23:00,,AN
10-Apr-2017 00:00,,AN
10-Apr-2017 01:00,,AN
10-Apr-2017 02:00,,AN
10-Apr-2017 03:00,,AN
10-Apr-2017 04:00,,AN
10-Apr-2017 05:00,,AN
10-Apr-2017 06:00,,AN
10-Apr-2017 07:00,,AN
10-Apr-2017 08:00,,AN
10-Apr-2017 09:00,,AN
10-Apr-2017 10:00,,AN
10-Apr-2017 11:00,,AN
10-Apr-2017 12:00,,AN
10-Apr-2017 13:00,,AN
10-Apr-2017 14:00,,AN
10-Apr-2017 15:00,,AN
10-Apr-2017 16:00,,AN
10-Apr-2017 17:00,,AN
10-Apr-2017 18:00,,AN
10-Apr-2017 19:00,,AN
10-Apr-2017 20:00,,AN
10-Apr-2017 21:00,,AN
10-Apr-2017 22:00,,AN
10-Apr-2017 23:00,,AN
11-Apr-2017 00:00,,AN
11-Apr-2017 01:00,,AN
11-Apr-2017 02:00,,AN
11-Apr-2017 03:00,,AN
11-Apr-2017 04:00,,AN
11-Apr-2017 05:00,,AN
11-Apr-2017 06:00,,AN
11-Apr-2017 07:00,,AN
11-Apr-2017 08:00,,AN
11-Apr-2017 09:00,,AN
11-Apr-2017 10:00,,AN
11-Apr-2017 11:00,,AN
11-Apr-2017 12:00,,AN
11-Apr-2017 13:00,,AN
11-Apr-2017 14:00,,AN
11-Apr-2017 15:00,,AN
11-Apr-2017 16:00,,AN
11-Apr-2017 17:00,,AN
11-Apr-2017 18:00,,AN
11-Apr-2017 19:00,,AN
11-Apr-2017 20:00,,AN
11-Apr-2017 21:00,,AN
11-Apr-2017 22:00,,AN
11-Apr-2017 23:00,,AN
12-Apr-2017 00:00,,AN
12-Apr-2017 01:00,,AN
12-Apr-2017 02:00,,AN
12-Apr-2017 03:00,,AN
12-Apr-2017 04:00,,AN
12-Apr-2017 05:00,,AN
12-Apr-2017 06:00,,AN
12-Apr-2017 07:00,,AN
12-Apr-2017 08:00,,AN
12-Apr-2017 09:00,,AN
12-Apr-2017 10:00,,AN
12-Apr-2017 11:00,,AN
12-Apr-2017 12:00,,AN
12-Apr-2017 13:00,,AN
12-Apr-2017 14:00,,AN
12-Apr-2017 15:00,,AN
12-Apr-2017 16:00,,AN
12-Apr-2017 17:00,,AN
12-Apr-2017 18:00,,AN
12-Apr-2017 19:00,,AN
12-Apr-2017 20:00,,AN
12-Apr-2017 21:00,,AN
12-Apr-2017 22:00,,AN
12-Apr-2017 23:00,,AN
13-Apr-2017 00:00,,AN
13-Apr-2017 01:00,,AN
13-Apr-2017 02:00,,AN
13-Apr-2017 03:00,,AN
13-Apr-2017 04:00,,AN
13-Apr-2017 05:00,,AN
13-Apr-2017 06:00,,AN
13-Apr-2017 07:00,,AN
13-Apr-2017 08:00,,AN
13-Apr-2017 09:00,,AN
13-Apr-2017 10:00,,AN
13-Apr-2017 11:00,81.9,
13-Apr-2017 12:00,19.6,
13-Apr-2017 13:00,28,
13-Apr-2017 14:00,9.3,
13-Apr-2017 15:00,11.3,
13-Apr-2017 16:00,8.7,
13-Apr-2017 17:00,27.4,
13-Apr-2017 18:00,12.3,
13-Apr-2017 19:00,9.4,
13-Apr-2017 20:00,9.8,
13-Apr-2017 21:00,10.3,
13-Apr-2017 22:00,10,
13-Apr-2017 23:00,9.2,
14-Apr-2017 00:00,9.3,
14-Apr-2017 01:00,7.4,
14-Apr-2017 02:00,8,
14-Apr-2017 03:00,6.6,
14-Apr-2017 04:00,8.3,
14-Apr-2017 05:00,7.4,
14-Apr-2017 06:00,7.3,
14-Apr-2017 07:00,8.1,
14-Apr-2017 08:00,8.6,
14-Apr-2017 09:00,8.8,
14-Apr-2017 10:00,13,
14-Apr-2017 11:00,16.7,
14-Apr-2017 12:00,16.8,
14-Apr-2017 13:00,21.3,
14-Apr-2017 14:00,16,
14-Apr-2017 15:00,16.3,
14-Apr-2017 16:00,,AX
14-Apr-2017 17:00,22.8,
14-Apr-2017 18:00,18.4,
14-Apr-2017 19:00,19.2,
14-Apr-2017 20:00,18,
14-Apr-2017 21:00,15.9,
14-Apr-2017 22:00,15.3,
14-Apr-2017 23:00,14.6,
15-Apr-2017 00:00,14.3,
15-Apr-2017 01:00,14,
15-Apr-2017 02:00,16.6,
15-Apr-2017 03:00,8.8,
15-Apr-2017 04:00,8.9,
15-Apr-2017 05:00,9,
15-Apr-2017 06:00,9.7,
15-Apr-2017 07:00,9.3,
15-Apr-2017 08:00,9.1,
15-Apr-2017 09:00,10.2,
15-Apr-2017 10:00,11.4,
15-Apr-2017 11:00,13.3,
15-Apr-2017 12:00,12.9,
15-Apr-2017 13:00,12.3,
15-Apr-2017 14:00,13.7,
15-Apr-2017 15:00,17,
15-Apr-2017 16:00,20.9,
15-Apr-2017 17:00,19.7,
15-Apr-2017 18:00,16.9,
15-Apr-2017 19:00,14.8,
15-Apr-2017 20:00,15,
15-Apr-2017 21:00,12.6,
15-Apr-2017 22:00,12.8,
15-Apr-2017 23:00,10,
16-Apr-2017 00:00,11.6,
16-Apr-2017 01:00,12.2,
16-Apr-2017 02:00,12.1,
16-Apr-2017 03:00,13.5,
16-Apr-2017 04:00,14.4,
16-Apr-2017 05:00,14.7,
16-Apr-2017 06:00,16.1,
16-Apr-2017 07:00,19.1,
16-Apr-2017 08:00,13.3,
16-Apr-2017 09:00,13.8,
16-Apr-2017 10:00,10.2,
16-Apr-2017 11:00,16,
16-Apr-2017 12:00,21.1,
16-Apr-2017 13:00,20.7,
16-Apr-2017 14:00,17,
16-Apr-2017 15:00,60.8,
16-Apr-2017 16:00,11.3,
16-Apr-2017 17:00,16.2,
16-Apr-2017 18:00,9,
16-Apr-2017 19:00,10.8,
16-Apr-2017 20:00,8.9,
16-Apr-2017 21:00,10.1,
16-Apr-2017 22:00,8.4,
16-Apr-2017 23:00,8.4,
17-Apr-2017 00:00,33.7,
17-Apr-2017 01:00,9.7,
17-Apr-2017 02:00,11.9,
17-Apr-2017 03:00,4.8,
17-Apr-2017 04:00,6.5,
17-Apr-2017 05:00,21.7,
17-Apr-2017 06:00,12.7,
17-Apr-2017 07:00,10.2,
17-Apr-2017 08:00,8.8,
17-Apr-2017 09:00,9.7,
17-Apr-2017 10:00,12.1,
17-Apr-2017 11:00,5.8,
17-Apr-2017 12:00,8.8,
17-Apr-2017 13:00,21.2,
17-Apr-2017 14:00,7.9,
17-Apr-2017 15:00,13,
17-Apr-2017 16:00,14.2,
17-Apr-2017 17:00,22.7,
17-Apr-2017 18:00,9.1,
17-Apr-2017 19:00,9.4,
17-Apr-2017 20:00,6.7,
17-Apr-2017 21:00,8.1,
17-Apr-2017 22:00,11.5,
17-Apr-2017 23:00,8.7,
18-Apr-2017 00:00,3.4,
18-Apr-2017 01:00,4.5,
18-Apr-2017 02:00,4.8,
18-Apr-2017 03:00,9.5,
18-Apr-2017 04:00,2.5,
18-Apr-2017 05:00,5.4,
18-Apr-2017 06:00,5.1,
18-Apr-2017 07:00,5,
18-Apr-2017 08:00,8.2,
18-Apr-2017 09:00,12.3,
18-Apr-2017 10:00,36.3,
18-Apr-2017 11:00,3.1,
18-Apr-2017 12:00,18.3,
18-Apr-2017 13:00,51.3,
18-Apr-2017 14:00,184.5,
18-Apr-2017 15:00,120.5,
18-Apr-2017 16:00,41.1,
18-Apr-2017 17:00,8.4,
18-Apr-2017 18:00,9.2,
18-Apr-2017 19:00,8.8,
18-Apr-2017 20:00,7.2,
18-Apr-2017 21:00,6.3,
18-Apr-2017 22:00,9,
18-Apr-2017 23:00,9.5,
19-Apr-2017 00:00,7.7,
19-Apr-2017 01:00,6.2,
19-Apr-2017 02:00,7,
19-Apr-2017 03:00,6.3,
19-Apr-2017 04:00,8.6,
19-Apr-2017 05:00,9.8,
19-Apr-2017 06:00,10.2,
19-Apr-2017 07:00,11.6,
19-Apr-2017 08:00,10.6,
19-Apr-2017 09:00,10.5,
19-Apr-2017 10:00,8.3,
19-Apr-2017 11:00,10.3,
19-Apr-2017 12:00,11.1,
19-Apr-2017 13:00,10.2,
19-Apr-2017 14:00,12.6,
19-Apr-2017 15:00,15.7,
19-Apr-2017 16:00,13.1,
19-Apr-2017 17:00,15.5,
19-Apr-2017 18:00,1.5,
19-Apr-2017 19:00,14.8,
19-Apr-2017 20:00,13.8,
19-Apr-2017 21:00,7.9,
19-Apr-2017 22:00,12.5,
19-Apr-2017 23:00,9.1,
20-Apr-2017 00:00,11.4,
20-Apr-2017 01:00,10.1,
20-Apr-2017 02:00,11.7,
20-Apr-2017 03:00,12.9,
20-Apr-2017 04:00,13.5,
20-Apr-2017 05:00,14.2,
20-Apr-2017 06:00,20.3,
20-Apr-2017 07:00,12,
20-Apr-2017 08:00,10.3,
20-Apr-2017 09:00,13,
20-Apr-2017 10:00,9.7,
20-Apr-2017 11:00,6.9,
20-Apr-2017 12:00,9.4,
20-Apr-2017 13:00,15.7,
20-Apr-2017 14:00,11.2,
20-Apr-2017 15:00,14.8,
20-Apr-2017 16:00,13.5,
20-Apr-2017 17:00,13.4,
20-Apr-2017 18:00,13.3,
20-Apr-2017 19:00,14.9,
20-Apr-2017 20:00,15.4,
20-Apr-2017 21:00,12,
20-Apr-2017 22:00,12.2,
20-Apr-2017 23:00,11.9,
21-Apr-2017 00:00,15.4,
21-Apr-2017 01:00,14.2,
21-Apr-2017 02:00,15.3,
21-Apr-2017 03:00,12.7,
21-Apr-2017 04:00,12.1,
21-Apr-2017 05:00,10.2,
21-Apr-2017 06:00,12.2,
21-Apr-2017 07:00,15.9,
21-Apr-2017 08:00,12.2,
21-Apr-2017 09:00,9.4,
21-Apr-2017 10:00,7.1,
21-Apr-2017 11:00,4.6,
21-Apr-2017 12:00,5,
21-Apr-2017 13:00,8.2,
21-Apr-2017 14:00,18.3,
21-Apr-2017 15:00,17.1,
21-Apr-2017 16:00,18,
21-Apr-2017 17:00,19.8,
21-Apr-2017 18:00,116.9,
21-Apr-2017 19:00,19.9,
21-Apr-2017 20:00,19.8,
21-Apr-2017 21:00,16.2,
21-Apr-2017 22:00,16.8,
21-Apr-2017 23:00,18.4,
22-Apr-2017 00:00,16.8,
22-Apr-2017 01:00,16.9,
22-Apr-2017 02:00,18.2,
22-Apr-2017 03:00,17,
22-Apr-2017 04:00,19.8,
22-Apr-2017 05:00,20.2,
22-Apr-2017 06:00,28.7,
22-Apr-2017 07:00,25.3,
22-Apr-2017 08:00,20.1,
22-Apr-2017 09:00,25,
22-Apr-2017 10:00,25.8,
22-Apr-2017 11:00,26.3,
22-Apr-2017 12:00,27.8,
22-Apr-2017 13:00,26.5,
22-Apr-2017 14:00,21.8,
22-Apr-2017 15:00,17.6,
22-Apr-2017 16:00,17.1,
22-Apr-2017 17:00,12.8,
22-Apr-2017 18:00,10.8,
22-Apr-2017 19:00,11.2,
22-Apr-2017 20:00,13.8,
22-Apr-2017 21:00,9.2,
22-Apr-2017 22:00,11.5,
22-Apr-2017 23:00,12,
23-Apr-2017 00:00,11.5,
23-Apr-2017 01:00,12.9,
23-Apr-2017 02:00,11.7,
23-Apr-2017 03:00,14.8,
23-Apr-2017 04:00,15,
23-Apr-2017 05:00,17.9,
23-Apr-2017 06:00,21.2,
23-Apr-2017 07:00,16.9,
23-Apr-2017 08:00,13.6,
23-Apr-2017 09:00,14.9,
23-Apr-2017 10:00,14.8,
23-Apr-2017 11:00,52.6,
23-Apr-2017 12:00,18.6,
23-Apr-2017 13:00,11,
23-Apr-2017 14:00,13.3,
23-Apr-2017 15:00,11.4,
23-Apr-2017 16:00,12.8,
23-Apr-2017 17:00,15.4,
23-Apr-2017 18:00,15.3,
23-Apr-2017 19:00,4.9,
23-Apr-2017 20:00,13.9,
23-Apr-2017 21:00,10.3,
23-Apr-2017 22:00,13.5,
23-Apr-2017 23:00,12.7,
24-Apr-2017 00:00,10.6,
24-Apr-2017 01:00,9.8,
24-Apr-2017 02:00,11.6,
24-Apr-2017 03:00,12.2,
24-Apr-2017 04:00,14.4,
24-Apr-2017 05:00,30.8,
24-Apr-2017 06:00,27.4,
24-Apr-2017 07:00,24.9,
24-Apr-2017 08:00,19.8,
24-Apr-2017 09:00,16.9,
24-Apr-2017 10:00,18,
24-Apr-2017 11:00,6.5,
24-Apr-2017 12:00,9.5,
24-Apr-2017 13:00,8.4,
24-Apr-2017 14:00,9.6,
24-Apr-2017 15:00,21.2,
24-Apr-2017 16:00,17.5,
24-Apr-2017 17:00,6.7,
24-Apr-2017 18:00,9.6,
24-Apr-2017 19:00,9,
24-Apr-2017 20:00,8.4,
24-Apr-2017 21:00,10.7,
24-Apr-2017 22:00,21.4,
24-Apr-2017 23:00,21.9,
25-Apr-2017 00:00,8.8,
25-Apr-2017 01:00,7.4,
25-Apr-2017 02:00,9.3,
25-Apr-2017 03:00,11.7,
25-Apr-2017 04:00,7.9,
25-Apr-2017 05:00,12.9,
25-Apr-2017 06:00,11.1,
25-Apr-2017 07:00,11.9,
25-Apr-2017 08:00,22.5,
25-Apr-2017 09:00,16.9,
25-Apr-2017 10:00,11.5,
25-Apr-2017 11:00,8.2,
25-Apr-2017 12:00,12.6,
25-Apr-2017 13:00,10.5,
25-Apr-2017 14:00,15.3,
25-Apr-2017 15:00,14.7,
25-Apr-2017 16:00,17.2,
25-Apr-2017 17:00,16.1,
25-Apr-2017 18:00,,AX
25-Apr-2017 19:00,15.5,
25-Apr-2017 20:00,15.9,
25-Apr-2017 21:00,15.1,
25-Apr-2017 22:00,21.9,
25-Apr-2017 23:00,18,
26-Apr-2017 00:00,12.7,
26-Apr-2017 01:00,11.6,
26-Apr-2017 02:00,13.4,
26-Apr-2017 03:00,11.2,
26-Apr-2017 04:00,12.8,
26-Apr-2017 05:00,18.2,
26-Apr-2017 06:00,23.5,
26-Apr-2017 07:00,19.6,
26-Apr-2017 08:00,17.2,
26-Apr-2017 09:00,13.8,
26-Apr-2017 10:00,14.2,
26-Apr-2017 11:00,13.5,
26-Apr-2017 12:00,14.6,
26-Apr-2017 13:00,13,
26-Apr-2017 14:00,13.4,
26-Apr-2017 15:00,8,
26-Apr-2017 16:00,37.5,
26-Apr-2017 17:00,52.3,
26-Apr-2017 18:00,23.2,
26-Apr-2017 19:00,13.2,
26-Apr-2017 20:00,6.6,
26-Apr-2017 21:00,3.7,
26-Apr-2017 22:00,11.6,
26-Apr-2017 23:00,19.9,
27-Apr-2017 00:00,11.2,
27-Apr-2017 01:00,8.8,
27-Apr-2017 02:00,8.4,
27-Apr-2017 03:00,8.6,
27-Apr-2017 04:00,8.7,
27-Apr-2017 05:00,11.3,
27-Apr-2017 06:00,15.1,
27-Apr-2017 07:00,6.3,
27-Apr-2017 08:00,5.8,
27-Apr-2017 09:00,6.6,
27-Apr-2017 10:00,10.2,
27-Apr-2017 11:00,10.2,
27-Apr-2017 12:00,14.2,
27-Apr-2017 13:00,13.9,
27-Apr-2017 14:00,18,
27-Apr-2017 15:00,12.5,
27-Apr-2017 16:00,17.9,
27-Apr-2017 17:00,11,
27-Apr-2017 18:00,14,
27-Apr-2017 19:00,10.2,
27-Apr-2017 20:00,10.8,
27-Apr-2017 21:00,9.4,
27-Apr-2017 22:00,14.6,
27-Apr-2017 23:00,40.9,
28-Apr-2017 00:00,55.8,
28-Apr-2017 01:00,40.4,
28-Apr-2017 02:00,46.1,
28-Apr-2017 03:00,31.4,
28-Apr-2017 04:00,24.6,
28-Apr-2017 05:00,43.4,
28-Apr-2017 06:00,69.3,
28-Apr-2017 07:00,59.7,
28-Apr-2017 08:00,42.9,
28-Apr-2017 09:00,19,
28-Apr-2017 10:00,9.3,
28-Apr-2017 11:00,8.3,
28-Apr-2017 12:00,9.7,
28-Apr-2017 13:00,12,
28-Apr-2017 14:00,6.7,
28-Apr-2017 15:00,12.6,
28-Apr-2017 16:00,38.1,
28-Apr-2017 17:00,109.5,
28-Apr-2017 18:00,67.3,
28-Apr-2017 19:00,58.2,
28-Apr-2017 20:00,78.7,
28-Apr-2017 21:00,106,
28-Apr-2017 22:00,89.2,
28-Apr-2017 23:00,42.6,
29-Apr-2017 00:00,59.2,
29-Apr-2017 01:00,28.8,
29-Apr-2017 02:00,18.3,
29-Apr-2017 03:00,9.1,
29-Apr-2017 04:00,8.2,
29-Apr-2017 05:00,10.1,
29-Apr-2017 06:00,9.8,
29-Apr-2017 07:00,12.2,
29-Apr-2017 08:00,13.5,
29-Apr-2017 09:00,10.1,
29-Apr-2017 10:00,4.8,
29-Apr-2017 11:00,2.3,
29-Apr-2017 12:00,2.9,
29-Apr-2017 13:00,7.1,
29-Apr-2017 14:00,6.3,
29-Apr-2017 15:00,6.9,
29-Apr-2017 16:00,6.4,
29-Apr-2017 17:00,13.1,
29-Apr-2017 18:00,17.6,
29-Apr-2017 19:00,16.7,
29-Apr-2017 20:00,10.6,
29-Apr-2017 21:00,8.5,
29-Apr-2017 22:00,8,
29-Apr-2017 23:00,8.7,
30-Apr-2017 00:00,8.8,
30-Apr-2017 01:00,9.1,
30-Apr-2017 02:00,8.3,
30-Apr-2017 03:00,8.8,
30-Apr-2017 04:00,7.6,
30-Apr-2017 05:00,20,
30-Apr-2017 06:00,10.7,
30-Apr-2017 07:00,6.8,
30-Apr-2017 08:00,9.4,
30-Apr-2017 09:00,5.2,
30-Apr-2017 10:00,11.2,
30-Apr-2017 11:00,6.9,
30-Apr-2017 12:00,15.8,
30-Apr-2017 13:00,12.7,
30-Apr-2017 14:00,9.7,
30-Apr-2017 15:00,25.9,
30-Apr-2017 16:00,21,
30-Apr-2017 17:00,17.8,
30-Apr-2017 18:00,22.2,
30-Apr-2017 19:00,18.8,
30-Apr-2017 20:00,21.8,
30-Apr-2017 21:00,27.7,
30-Apr-2017 22:00,21.1,
30-Apr-2017 23:00,20.6,
